FW8346 Weather Reports


Display with metric or nautical units.
time (UTC)temp
F
wind
direction
speed
MPH
gust
MPH
rain 1hr
in
rain 24hr
in
rain mn
in
humidity
%
barometer
mb
20260508181032 62 321 5.0 15.0 0.00 0.00 0.00 26 1004.3
20260508180532 62 310 6.0 15.0 0.00 0.00 0.00 31 1004.3
20260508180032 63 37 6.0 12.0 0.00 0.00 0.00 26 1004.4
20260508175533 63 6 4.0 12.0 0.00 0.00 0.00 28 1004.4
20260508175033 62 338 4.0 13.0 0.00 0.00 0.00 24 1004.5
20260508174533 62 274 5.0 13.0 0.00 0.00 0.00 26 1004.6
20260508174032 61 305 5.0 10.0 0.00 0.00 0.00 25 1004.7
20260508173533 61 295 5.0 10.0 0.00 0.00 0.00 31 1004.7
20260508173301 62 337 6.0 12.0 0.00 0.00 0.00 23 1004.7
20260508172529 63 344 6.0 14.0 0.00 0.00 0.00 25 1004.8
20260508172028 63 332 5.0 14.0 0.00 0.00 0.00 24 1004.9
20260508171530 63 335 3.0 8.0 0.00 0.00 0.00 27 1005.0
20260508171029 63 340 2.0 12.0 0.00 0.00 0.00 25 1005.2
20260508170802 62 5 3.0 12.0 0.00 0.00 0.00 27 1005.2
20260508170029 62 280 3.0 8.0 0.00 0.00 0.00 27 1005.2
20260508165528 60 19 2.0 6.0 0.00 0.00 0.00 35 1005.2
20260508165030 61 54 1.0 3.0 0.00 0.00 0.00 34 1005.3
20260508164755 60 36 3.0 8.0 0.00 0.00 0.00 31 1005.3
20260508164017 60 52 4.0 8.0 0.00 0.00 0.00 30 1005.4
20260508163511 61 135 2.0 6.0 0.00 0.00 0.00 30 1005.3
20260508163005 62 53 3.0 10.0 0.00 0.00 0.00 35 1005.5
20260508162459 61 195 3.0 10.0 0.00 0.00 0.00 34 1005.5
20260508161953 61 171 2.0 7.0 0.00 0.00 0.00 31 1005.5
20260508161447 60 227 2.0 5.0 0.00 0.00 0.00 32 1005.6
20260508160941 59 248 2.0 5.0 0.00 0.00 0.00 39 1005.6
20260508160435 59 49 1.0 5.0 0.00 0.00 0.00 34 1005.6
20260508155935 58 56 2.0 6.0 0.00 0.00 0.00 32 1005.7
20260508155435 58 109 3.0 6.0 0.00 0.00 0.00 33 1005.7
20260508155205 58 70 2.0 4.0 0.00 0.00 0.00 32 1005.7
20260508154434 58 120 0.0 2.0 0.00 0.00 0.00 34 1005.9
20260508153934 57 102 0.0 1.0 0.00 0.00 0.00 41 1005.9
20260508153432 56 63 0.0 1.0 0.00 0.00 0.00 42 1006.0
20260508152935 56 54 1.0 2.0 0.00 0.00 0.00 46 1006.0
20260508152433 55 51 2.0 3.0 0.00 0.00 0.00 50 1006.0
20260508152203 56 63 2.0 3.0 0.00 0.00 0.00 43 1006.0
20260508151430 57 91 1.0 3.0 0.00 0.00 0.00 42 1006.1
20260508150930 57 108 1.0 3.0 0.00 0.00 0.00 40 1006.2
20260508150428 56 349 0.0 3.0 0.00 0.00 0.00 42 1006.2
20260508145928 55 323 1.0 5.0 0.00 0.00 0.00 42 1006.3
20260508145429 55 308 1.0 5.0 0.00 0.00 0.00 42 1006.3
20260508144926 55 314 0.0 2.0 0.00 0.00 0.00 43 1006.3
20260508144428 55 285 0.0 2.0 0.00 0.00 0.00 45 1006.4
20260508143925 54 228 1.0 3.0 0.00 0.00 0.00 43 1006.4
20260508143428 54 291 1.0 4.0 0.00 0.00 0.00 46 1006.5
20260508142922 54 273 1.0 4.0 0.00 0.00 0.00 46 1006.6
20260508142417 53 311 1.0 4.0 0.00 0.00 0.00 47 1006.6
20260508141910 52 220 1.0 4.0 0.00 0.00 0.00 47 1006.6
20260508141404 52 295 1.0 4.0 0.00 0.00 0.00 50 1006.8
20260508140858 51 224 1.0 4.0 0.00 0.00 0.00 51 1006.8
20260508140352 50 248 2.0 7.0 0.00 0.00 0.00 50 1006.9
20260508140117 50 231 2.0 7.0 0.00 0.00 0.00 48 1006.9
20260508135340 49 213 1.0 4.0 0.00 0.00 0.00 50 1006.9
20260508134834 48 281 0.0 2.0 0.00 0.00 0.00 55 1007.0
20260508134328 47 242 0.0 1.0 0.00 0.00 0.00 58 1007.0
20260508134053 46 68 0.0 0.0 0.00 0.00 0.00 60 1007.2
20260508133317 46 67 0.0 0.0 0.00 0.00 0.00 60 1007.2
20260508132810 45 83 0.0 1.0 0.00 0.00 0.00 59 1007.2
20260508132306 45 87 1.0 2.0 0.00 0.00 0.00 58 1007.1
20260508131758 44 88 2.0 3.0 0.00 0.00 0.00 60 1007.1
20260508131252 44 56 2.0 3.0 0.00 0.00 0.00 68 1007.1
20260508130746 44 41 1.0 4.0 0.00 0.00 0.00 70 1007.3
20260508130240 43 354 2.0 4.0 0.00 0.00 0.00 69 1007.4
20260508125734 43 30 1.0 4.0 0.00 0.00 0.00 69 1007.4
20260508125229 44 112 0.0 1.0 0.00 0.00 0.00 65 1007.3
20260508124722 43 12 0.0 0.0 0.00 0.00 0.00 70 1007.3
20260508124216 42 106 0.0 0.0 0.00 0.00 0.00 72 1007.2
20260508123941 40 14 0.0 0.0 0.00 0.00 0.00 77 1007.3
20260508123204 40 14 0.0 1.0 0.00 0.00 0.00 77 1007.3
20260508122658 39 13 1.0 2.0 0.00 0.00 0.00 78 1007.3
20260508122152 39 31 1.0 3.0 0.00 0.00 0.00 77 1007.3
20260508121646 40 21 1.0 3.0 0.00 0.00 0.00 78 1007.3
20260508121140 40 27 0.0 1.0 0.00 0.00 0.00 76 1007.2
20260508120634 39 358 1.0 2.0 0.00 0.00 0.00 79 1007.2
20260508120359 38 358 1.0 2.0 0.00 0.00 0.00 79 1007.1
20260508115622 37 5 1.0 2.0 0.00 0.00 0.00 80 1007.1
20260508115348 37 351 0.0 1.0 0.00 0.00 0.00 81 1007.1
20260508114842 37 14 0.0 2.0 0.00 0.00 0.00 83 1007.1
20260508114104 36 6 0.0 2.0 0.00 0.00 0.00 83 1007.1
20260508113558 36 225 0.0 0.0 0.00 0.00 0.00 80 1007.1
20260508113052 35 225 0.0 0.0 0.00 0.00 0.00 79 1007.3
20260508112546 35 225 0.0 0.0 0.00 0.00 0.00 77 1007.3
20260508112311 34 225 0.0 0.0 0.00 0.00 0.00 76 1007.2
20260508111534 33 225 0.0 0.0 0.00 0.00 0.00 76 1007.2
20260508111028 33 225 0.0 0.0 0.00 0.00 0.00 76 1007.3
20260508110753 33 225 0.0 0.0 0.00 0.00 0.00 78 1007.3
20260508110016 32 225 0.0 0.0 0.00 0.00 0.00 80 1007.3
20260508105510 33 225 0.0 0.0 0.00 0.00 0.00 81 1007.3
20260508105004 33 225 0.0 2.0 0.00 0.00 0.00 81 1007.3
20260508104729 33 225 0.0 2.0 0.00 0.00 0.00 82 1007.3
20260508103952 33 233 0.0 2.0 0.00 0.00 0.00 81 1007.4
20260508103451 34 261 1.0 2.0 0.00 0.00 0.00 80 1007.4
20260508102948 34 233 0.0 1.0 0.00 0.00 0.00 80 1007.4
20260508102448 34 233 0.0 1.0 0.00 0.00 0.00 82 1007.5
20260508101949 35 236 0.0 1.0 0.00 0.00 0.00 81 1007.4
20260508101447 35 236 0.0 1.0 0.00 0.00 0.00 81 1007.5
20260508100945 35 236 0.0 1.0 0.00 0.00 0.00 81 1007.5
20260508100444 36 236 0.0 0.0 0.00 0.00 0.00 80 1007.5
20260508100217 37 235 0.0 0.0 0.00 0.00 0.00 79 1007.4
20260508095442 37 22 0.0 0.0 0.00 0.00 0.00 79 1007.4
20260508094941 37 22 0.0 0.0 0.00 0.00 0.00 79 1007.4
20260508094440 37 23 0.0 0.0 0.00 0.00 0.00 77 1007.4
20260508094215 38 23 0.0 0.0 0.00 0.00 0.00 77 1007.4
20260508093439 38 22 0.0 2.0 0.00 0.00 0.00 75 1007.3
20260508092940 38 22 1.0 2.0 0.00 0.00 0.00 73 1007.4
20260508092710 38 23 1.0 2.0 0.00 0.00 0.00 72 1007.4
20260508091937 38 19 2.0 2.0 0.00 0.00 0.00 71 1007.5
20260508091436 38 4 2.0 3.0 0.00 0.00 0.00 74 1007.5
20260508091206 38 354 2.0 3.0 0.00 0.00 0.00 74 1007.4
20260508090435 38 3 3.0 4.0 0.00 0.00 0.00 76 1007.4
20260508085935 38 4 2.0 4.0 0.00 0.00 0.00 77 1007.5
20260508085435 37 355 1.0 3.0 0.00 0.00 0.00 77 1007.5
20260508085205 37 358 0.0 1.0 0.00 0.00 0.00 83 1007.5
20260508084434 37 358 0.0 1.0 0.00 0.00 0.00 84 1007.5
20260508084205 37 358 0.0 1.0 0.00 0.00 0.00 84 1007.6
20260508083432 37 358 0.0 0.0 0.00 0.00 0.00 82 1007.6
20260508082931 37 358 0.0 0.0 0.00 0.00 0.00 81 1007.6
20260508082658 37 358 0.0 0.0 0.00 0.00 0.00 81 1007.7
20260508081927 37 358 0.0 0.0 0.00 0.00 0.00 80 1007.7
20260508081423 37 358 0.0 0.0 0.00 0.00 0.00 80 1007.7
20260508080923 37 358 0.0 0.0 0.00 0.00 0.00 79 1007.8
20260508080424 37 358 0.0 0.0 0.00 0.00 0.00 79 1007.7
20260508075923 37 358 0.0 0.0 0.00 0.00 0.00 79 1007.7
20260508075656 37 358 0.0 0.0 0.00 0.00 0.00 78 1007.7
20260508074921 38 358 0.0 0.0 0.00 0.00 0.00 78 1007.8
20260508074419 38 358 0.0 0.0 0.00 0.00 0.00 78 1007.8
20260508073919 38 358 0.0 0.0 0.00 0.00 0.00 77 1007.8
20260508073420 38 358 0.0 0.0 0.00 0.00 0.00 76 1007.8
20260508073309 39 352 0.0 1.0 0.00 0.00 0.00 76 1007.9
20260508073158 38 352 0.0 0.0 0.00 0.00 0.00 76 1007.9
20260508071919 39 353 0.0 1.0 0.00 0.00 0.00 77 1008.0
20260508071420 39 333 0.0 0.0 0.00 0.00 0.00 78 1007.9
20260508070921 38 333 0.0 0.0 0.00 0.00 0.00 79 1008.0
20260508070417 38 333 0.0 0.0 0.00 0.00 0.00 77 1008.0
20260508065916 38 333 0.0 0.0 0.00 0.00 0.00 78 1008.1
20260508065646 38 333 0.0 0.0 0.00 0.00 0.00 77 1008.1
20260508064917 38 333 0.0 0.0 0.00 0.00 0.00 76 1008.1
20260508064648 38 333 0.0 0.0 0.00 0.00 0.00 80 1008.1
20260508063916 38 333 0.0 0.0 0.00 0.00 0.00 81 1008.2
20260508063416 38 333 0.0 0.0 0.00 0.00 0.00 80 1008.2
20260508062916 38 333 0.0 0.0 0.00 0.00 0.00 80 1008.2
20260508062417 38 333 0.0 0.0 0.00 0.00 0.00 80 1008.2
20260508061916 38 333 0.0 0.0 0.00 0.00 0.00 80 1008.3
20260508061417 38 333 0.0 0.0 0.00 0.00 0.00 80 1008.3
20260508060915 38 333 0.0 0.0 0.00 0.00 0.00 79 1008.4
20260508060417 38 333 0.0 0.0 0.00 0.00 0.00 77 1008.4
20260508060147 38 333 0.0 0.0 0.00 0.00 0.00 78 1008.4
20260508055415 38 333 0.0 0.0 0.00 0.00 0.00 79 1008.5
20260508054915 38 333 0.0 0.0 0.00 0.00 0.00 78 1008.4
20260508054645 38 333 0.0 0.0 0.00 0.00 0.00 78 1008.4
20260508054144 38 333 0.0 0.0 0.00 0.00 0.00 79 1008.4
20260508053408 39 333 0.0 0.0 0.00 0.00 0.00 78 1008.5
20260508052902 39 333 0.0 0.0 0.00 0.00 0.00 78 1008.5
20260508052626 39 333 0.0 0.0 0.00 0.00 0.00 77 1008.5
20260508052124 39 333 0.0 0.0 0.00 0.00 0.00 76 1008.5
20260508051615 39 333 0.0 0.0 0.00 0.00 0.00 76 1008.5
20260508050838 39 333 0.0 0.0 0.00 0.00 0.00 75 1008.4
20260508050332 39 333 0.0 0.0 0.00 0.00 0.00 74 1008.4
20260508045329 39 333 0.0 0.0 0.00 0.00 0.00 77 1008.4
20260508044827 40 333 0.0 0.0 0.00 0.00 0.00 76 1008.5
20260508044328 40 333 0.0 0.0 0.00 0.00 0.00 76 1008.5
20260508043829 40 333 0.0 0.0 0.00 0.00 0.00 76 1008.5
20260508043326 41 333 0.0 0.0 0.00 0.00 0.00 77 1008.6
20260508042827 41 333 0.0 1.0 0.00 0.00 0.00 76 1008.6
20260508042325 40 333 0.0 1.0 0.00 0.00 0.00 72 1008.6
20260508042057 40 355 0.0 1.0 0.00 0.00 0.00 70 1008.6
20260508041324 39 236 0.0 0.0 0.00 0.00 0.00 61 1008.5
20260508040821 39 236 0.0 0.0 0.00 0.00 0.00 58 1008.5
20260508040552 40 236 0.0 0.0 0.00 0.00 0.00 58 1008.5
20260508035819 40 236 0.0 0.0 0.00 0.00 0.00 57 1008.5
20260508035550 40 236 0.0 0.0 0.00 0.00 0.00 57 1008.5
20260508034817 40 236 0.0 1.0 0.00 0.00 0.00 58 1008.5
20260508034547 41 236 0.0 1.0 0.00 0.00 0.00 57 1008.6
20260508034421 41 236 0.0 1.0 0.00 0.00 0.00 56 1008.5
20260508033305 41 236 0.0 0.0 0.00 0.00 0.00 57 1008.6
20260508032759 41 236 0.0 0.0 0.00 0.00 0.00 62 1008.6
20260508032253 42 236 0.0 0.0 0.00 0.00 0.00 64 1008.5
20260508031747 42 236 0.0 0.0 0.00 0.00 0.00 59 1008.6
20260508031513 42 236 0.0 0.0 0.00 0.00 0.00 56 1008.5
20260508030735 42 236 0.0 1.0 0.00 0.00 0.00 55 1008.5
20260508030229 42 236 0.0 1.0 0.00 0.00 0.00 53 1008.6
20260508025723 42 236 0.0 0.0 0.00 0.00 0.00 54 1008.5
20260508025217 42 236 0.0 0.0 0.00 0.00 0.00 58 1008.5
20260508024710 42 236 0.0 0.0 0.00 0.00 0.00 52 1008.6
20260508024206 43 236 0.0 0.0 0.00 0.00 0.00 52 1008.5
20260508023659 43 236 0.0 0.0 0.00 0.00 0.00 51 1008.5
20260508023154 44 236 0.0 0.0 0.00 0.00 0.00 50 1008.5
20260508022647 44 236 0.0 0.0 0.00 0.00 0.00 49 1008.5
20260508022141 44 236 0.0 0.0 0.00 0.00 0.00 49 1008.4
20260508021635 45 236 0.0 1.0 0.00 0.00 0.00 47 1008.4
20260508021129 45 236 0.0 1.0 0.00 0.00 0.00 47 1008.4
20260508020623 46 236 0.0 0.0 0.00 0.00 0.00 46 1008.4
20260508020117 46 236 0.0 0.0 0.00 0.00 0.00 46 1008.3
20260508015611 47 236 0.0 0.0 0.00 0.00 0.00 45 1008.3
20260508015336 48 236 0.0 1.0 0.00 0.00 0.00 43 1008.3
20260508014600 48 236 0.0 1.0 0.00 0.00 0.00 42 1008.2
20260508014056 48 236 0.0 0.0 0.00 0.00 0.00 43 1008.2
20260508014049 49 236 0.0 1.0 0.00 0.00 0.00 41 1008.2
20260508013041 49 258 0.0 1.0 0.00 0.00 0.00 42 1008.2
20260508012807 50 259 0.0 0.0 0.00 0.00 0.00 41 1008.1
20260508012029 50 259 0.0 0.0 0.00 0.00 0.00 40 1008.1
20260508011523 50 259 0.0 0.0 0.00 0.00 0.00 40 1008.1
20260508011018 51 259 0.0 0.0 0.00 0.00 0.00 39 1008.1
20260508010511 51 259 0.0 0.0 0.00 0.00 0.00 39 1008.0
20260508010006 51 259 0.0 0.0 0.00 0.00 0.00 38 1008.1
20260508005459 52 259 0.0 0.0 0.00 0.00 0.00 37 1008.0
20260508004953 53 259 0.0 0.0 0.00 0.00 0.00 37 1008.1
20260508004447 53 259 0.0 0.0 0.00 0.00 0.00 36 1008.0
20260508003941 53 351 0.0 0.0 0.00 0.00 0.00 36 1008.1
20260508003435 53 8 0.0 2.0 0.00 0.00 0.00 35 1008.1
20260508003200 53 258 0.0 2.0 0.00 0.00 0.00 35 1008.0
20260508002423 53 319 1.0 6.0 0.00 0.00 0.00 36 1008.1
20260508001917 53 319 2.0 6.0 0.00 0.00 0.00 36 1008.1
20260508001411 53 333 1.0 4.0 0.00 0.00 0.00 36 1008.1
20260508000905 53 352 0.0 4.0 0.00 0.00 0.00 37 1008.1
20260508000359 54 340 1.0 6.0 0.00 0.00 0.00 35 1008.1
20260507235853 54 331 1.0 6.0 0.00 0.00 0.00 34 1008.2
20260507235347 54 308 2.0 8.0 0.00 0.00 0.00 34 1008.1
20260507235113 54 320 3.0 8.0 0.00 0.00 0.00 38 1008.1
20260507234335 55 268 3.0 8.0 0.00 0.00 0.00 34 1008.2
20260507233829 55 318 2.0 6.0 0.00 0.00 0.00 35 1008.2
20260507233322 54 6 1.0 5.0 0.00 0.00 0.00 39 1008.2
20260507233049 54 329 1.0 4.0 0.00 0.00 0.00 34 1008.2
20260507232311 54 313 2.0 5.0 0.00 0.00 0.00 34 1008.2
20260507231805 55 350 2.0 7.0 0.00 0.00 0.00 34 1008.3
20260507231531 55 283 3.0 7.0 0.00 0.00 0.00 34 1008.3
20260507230753 55 298 2.0 7.0 0.00 0.00 0.00 33 1008.3
20260507230519 55 248 3.0 9.0 0.00 0.00 0.00 33 1008.3
20260507225742 54 276 3.0 13.0 0.00 0.00 0.00 34 1008.3
20260507225236 55 351 3.0 13.0 0.00 0.00 0.00 33 1008.3
20260507224729 54 281 3.0 10.0 0.00 0.00 0.00 35 1008.4
20260507224223 54 324 2.0 10.0 0.00 0.00 0.00 36 1008.4
20260507223722 54 356 2.0 8.0 0.00 0.00 0.00 36 1008.5
20260507223453 54 286 4.0 10.0 0.00 0.00 0.00 36 1008.4
20260507222722 54 319 5.0 10.0 0.00 0.00 0.00 34 1008.5
20260507222222 54 316 4.0 9.0 0.00 0.00 0.00 35 1008.5
20260507221722 55 334 3.0 9.0 0.00 0.00 0.00 33 1008.5
20260507221454 55 319 2.0 9.0 0.00 0.00 0.00 35 1008.5
20260507220721 55 287 3.0 10.0 0.00 0.00 0.00 33 1008.6
20260507220222 55 293 4.0 15.0 0.00 0.00 0.00 32 1008.6
20260507215722 55 290 3.0 15.0 0.00 0.00 0.00 34 1008.6
20260507215452 55 6 2.0 7.0 0.00 0.00 0.00 34 1008.7
20260507214954 55 338 3.0 7.0 0.00 0.00 0.00 33 1008.6
20260507214222 55 290 2.0 8.0 0.00 0.00 0.00 33 1008.6
20260507213722 55 205 1.0 8.0 0.00 0.00 0.00 34 1008.7
20260507213221 55 342 2.0 8.0 0.00 0.00 0.00 35 1008.7
20260507212721 55 6 3.0 8.0 0.00 0.00 0.00 34 1008.7
20260507212222 55 37 2.0 8.0 0.00 0.00 0.00 35 1008.7
20260507211718 54 340 2.0 9.0 0.00 0.00 0.00 34 1008.8
20260507211219 54 312 2.0 9.0 0.00 0.00 0.00 35 1008.8
20260507210724 54 342 4.0 14.0 0.00 0.00 0.00 35 1008.9
20260507210719 54 291 3.0 14.0 0.00 0.00 0.00 34 1008.9
20260507205718 54 283 3.0 9.0 0.00 0.00 0.00 36 1008.8
20260507205219 54 311 2.0 9.0 0.00 0.00 0.00 34 1009.0
20260507204719 54 305 2.0 8.0 0.00 0.00 0.00 34 1009.0
20260507204219 54 347 4.0 9.0 0.00 0.00 0.00 34 1009.0
20260507203718 54 214 4.0 10.0 0.00 0.00 0.00 35 1009.1
20260507203221 54 7 4.0 10.0 0.00 0.00 0.00 34 1009.1
20260507202720 53 221 5.0 11.0 0.00 0.00 0.00 36 1009.2
20260507202220 54 14 4.0 12.0 0.00 0.00 0.00 34 1009.2
20260507201721 54 332 4.0 12.0 0.00 0.00 0.00 34 1009.3
20260507201215 54 339 3.0 11.0 0.00 0.00 0.00 35 1009.2
20260507200948 54 351 2.0 11.0 0.00 0.00 0.00 34 1009.4
20260507200216 54 214 2.0 11.0 0.00 0.00 0.00 34 1009.5
20260507195714 54 273 3.0 8.0 0.00 0.00 0.00 35 1009.4
20260507195446 54 346 3.0 10.0 0.00 0.00 0.00 35 1009.5
20260507194714 53 358 1.0 10.0 0.00 0.00 0.00 37 1009.5
20260507194215 53 289 2.0 8.0 0.00 0.00 0.00 34 1009.5
20260507193715 53 293 2.0 11.0 0.00 0.00 0.00 33 1009.5
20260507193216 54 282 2.0 11.0 0.00 0.00 0.00 34 1009.6
20260507192710 54 165 2.0 9.0 0.00 0.00 0.00 34 1009.5
20260507192210 54 57 3.0 12.0 0.00 0.00 0.00 33 1009.6
20260507191942 54 1 3.0 12.0 0.00 0.00 0.00 36 1009.6
20260507191211 54 276 2.0 7.0 0.00 0.00 0.00 34 1009.8
20260507190710 54 202 2.0 8.0 0.00 0.00 0.00 34 1009.8
20260507190211 54 288 2.0 8.0 0.00 0.00 0.00 33 1009.8
20260507185712 54 321 2.0 13.0 0.00 0.00 0.00 34 1009.8
20260507185448 54 229 3.0 9.0 0.00 0.00 0.00 35 1009.9
20260507185211 54 273 3.0 13.0 0.00 0.00 0.00 33 1009.8
20260507184206 54 259 2.0 13.0 0.00 0.00 0.00 33 1010.0
20260507183705 53 328 2.0 13.0 0.00 0.00 0.00 34 1010.0
20260507183205 53 210 3.0 9.0 0.00 0.00 0.00 33 1010.0
20260507182705 53 206 3.0 11.0 0.00 0.00 0.00 33 1010.1
20260507182206 53 348 3.0 11.0 0.00 0.00 0.00 36 1010.1
20260507181705 53 293 3.0 9.0 0.00 0.00 0.00 34 1010.2